| time (UTC) | temp F | wind direction | speed MPH | gust MPH | rain 1hr in | rain 24hr in | rain mn in | humidity % | barometer mb |
| 20260904090204 | 55 | 80 | 2.0 | 3.0 | 0.00 | 0.28 | 0.00 | 92 | 1010.7 |
| 20260904083704 | 55 | 90 | 2.0 | 3.0 | 0.00 | 0.28 | 0.00 | 92 | 1010.7 |
| 20260904083203 | 55 | 101 | 2.0 | 3.0 | 0.00 | 0.28 | 0.00 | 92 | 1010.8 |
| 20260904073704 | 56 | 68 | 0.0 | 1.0 | 0.02 | 0.28 | 0.00 | 92 | 1010.8 |
| 20260904073204 | 56 | 68 | 0.0 | 3.0 | 0.02 | 0.28 | 0.00 | 91 | 1010.8 |
| 20260904070704 | 56 | 68 | 0.0 | 0.0 | 0.03 | 0.28 | 0.00 | 91 | 1010.9 |
| 20260904070205 | 56 | 68 | 0.0 | 0.0 | 0.03 | 0.28 | 0.00 | 91 | 1010.9 |
| 20260904063703 | 57 | 68 | 0.0 | 0.0 | 0.01 | 0.26 | 0.26 | 90 | 1010.9 |
| 20260904063203 | 57 | 68 | 1.0 | 7.0 | 0.01 | 0.26 | 0.26 | 90 | 1010.8 |
| 20260904060704 | 57 | 82 | 1.0 | 3.0 | 0.00 | 0.25 | 0.25 | 90 | 1010.7 |
| 20260904060204 | 57 | 80 | 2.0 | 3.0 | 0.00 | 0.25 | 0.25 | 90 | 1010.6 |
| 20260904053704 | 57 | 80 | 0.0 | 0.0 | 0.00 | 0.25 | 0.25 | 91 | 1010.6 |
| 20260904053204 | 57 | 80 | 0.0 | 0.0 | 0.00 | 0.25 | 0.25 | 91 | 1010.6 |
| 20260904050704 | 58 | 80 | 0.0 | 0.0 | 0.00 | 0.25 | 0.25 | 91 | 1010.7 |
| 20260904050203 | 58 | 80 | 0.0 | 0.0 | 0.00 | 0.25 | 0.25 | 92 | 1010.6 |
| 20260904043204 | 57 | 80 | 0.0 | 0.0 | 0.00 | 0.25 | 0.25 | 91 | 1010.8 |
| 20260904040703 | 57 | 80 | 0.0 | 0.0 | 0.00 | 0.25 | 0.25 | 91 | 1010.6 |
| 20260904040205 | 58 | 80 | 0.0 | 0.0 | 0.00 | 0.25 | 0.25 | 90 | 1010.5 |
| 20260904033704 | 58 | 80 | 0.0 | 0.0 | 0.00 | 0.25 | 0.25 | 90 | 1010.4 |
| 20260904033204 | 58 | 80 | 0.0 | 3.0 | 0.00 | 0.25 | 0.25 | 90 | 1010.3 |
| 20260904030704 | 59 | 142 | 1.0 | 2.0 | 0.00 | 0.25 | 0.25 | 90 | 1010.1 |
| 20260904030204 | 59 | 142 | 0.0 | 2.0 | 0.00 | 0.25 | 0.25 | 89 | 1010.1 |
| 20260904023704 | 60 | 142 | 0.0 | 2.0 | 0.01 | 0.25 | 0.25 | 86 | 1010.0 |
| 20260904023204 | 59 | 142 | 1.0 | 6.0 | 0.01 | 0.25 | 0.25 | 87 | 1010.0 |
| 20260904020704 | 59 | 132 | 2.0 | 3.0 | 0.11 | 0.25 | 0.25 | 88 | 1009.9 |
| 20260904013704 | 60 | 145 | 1.0 | 3.0 | 0.17 | 0.24 | 0.24 | 88 | 1009.8 |
| 20260904013204 | 60 | 239 | 0.0 | 5.0 | 0.17 | 0.24 | 0.24 | 86 | 1009.9 |
| 20260904010204 | 61 | 160 | 2.0 | 10.0 | 0.07 | 0.15 | 0.14 | 81 | 1009.8 |
| 20260904003704 | 66 | 28 | 1.0 | 3.0 | 0.00 | 0.09 | 0.07 | 64 | 1009.4 |
| 20260904003203 | 66 | 41 | 1.0 | 8.0 | 0.00 | 0.10 | 0.07 | 64 | 1009.3 |
| 20260904000704 | 67 | 15 | 1.0 | 3.0 | 0.00 | 0.11 | 0.07 | 64 | 1009.4 |
| 20260904000205 | 67 | 27 | 2.0 | 8.0 | 0.00 | 0.11 | 0.07 | 63 | 1009.3 |
| 20260903233704 | 69 | 56 | 2.0 | 5.0 | 0.00 | 0.11 | 0.07 | 61 | 1009.4 |
| 20260903233203 | 69 | 59 | 3.0 | 6.0 | 0.00 | 0.11 | 0.07 | 61 | 1009.4 |
| 20260903230704 | 71 | 1 | 2.0 | 6.0 | 0.00 | 0.12 | 0.07 | 59 | 1009.3 |
| 20260903230203 | 70 | 40 | 3.0 | 6.0 | 0.00 | 0.12 | 0.07 | 63 | 1009.4 |
| 20260903223704 | 67 | 31 | 2.0 | 6.0 | 0.00 | 0.15 | 0.07 | 66 | 1009.6 |
| 20260903223203 | 67 | 7 | 3.0 | 5.0 | 0.00 | 0.16 | 0.07 | 68 | 1009.6 |
| 20260903220704 | 65 | 44 | 0.0 | 2.0 | 0.00 | 0.19 | 0.07 | 68 | 1009.7 |
| 20260903220204 | 65 | 44 | 1.0 | 5.0 | 0.00 | 0.19 | 0.07 | 69 | 1009.8 |
| 20260903213704 | 64 | 198 | 1.0 | 3.0 | 0.00 | 0.22 | 0.07 | 68 | 1009.8 |
| 20260903213204 | 65 | 266 | 3.0 | 7.0 | 0.00 | 0.22 | 0.07 | 66 | 1009.8 |
| 20260903210704 | 65 | 230 | 2.0 | 13.0 | 0.00 | 0.24 | 0.07 | 68 | 1009.7 |
| 20260903203205 | 67 | 287 | 4.0 | 10.0 | 0.00 | 0.25 | 0.07 | 62 | 1009.5 |
| 20260903200704 | 64 | 279 | 2.0 | 7.0 | 0.00 | 0.25 | 0.07 | 66 | 1009.5 |
| 20260903200204 | 64 | 292 | 3.0 | 10.0 | 0.00 | 0.25 | 0.07 | 67 | 1009.5 |
| 20260903193704 | 64 | 246 | 2.0 | 7.0 | 0.00 | 0.28 | 0.07 | 68 | 1009.5 |
| 20260903193204 | 64 | 185 | 3.0 | 12.0 | 0.00 | 0.28 | 0.07 | 67 | 1009.5 |
| 20260903190704 | 65 | 180 | 2.0 | 5.0 | 0.00 | 0.28 | 0.07 | 68 | 1009.4 |
| 20260903190204 | 64 | 160 | 2.0 | 9.0 | 0.00 | 0.28 | 0.07 | 69 | 1009.5 |
| 20260903183703 | 63 | 244 | 2.0 | 5.0 | 0.00 | 0.28 | 0.07 | 70 | 1009.5 |
| 20260903183204 | 62 | 188 | 2.0 | 7.0 | 0.00 | 0.28 | 0.07 | 71 | 1009.5 |
| 20260903180703 | 61 | 159 | 3.0 | 5.0 | 0.00 | 0.28 | 0.07 | 73 | 1009.5 |
| 20260903180204 | 61 | 163 | 4.0 | 9.0 | 0.00 | 0.28 | 0.07 | 73 | 1009.4 |
| 20260903173704 | 61 | 156 | 3.0 | 7.0 | 0.00 | 0.28 | 0.07 | 75 | 1009.3 |
| 20260903170704 | 61 | 119 | 1.0 | 3.0 | 0.00 | 0.28 | 0.07 | 81 | 1009.1 |
| 20260903170204 | 60 | 61 | 1.0 | 7.0 | 0.00 | 0.28 | 0.07 | 83 | 1009.1 |
| 20260903163704 | 59 | 136 | 3.0 | 6.0 | 0.00 | 0.28 | 0.07 | 83 | 1009.1 |
| 20260903163204 | 59 | 78 | 1.0 | 3.0 | 0.00 | 0.28 | 0.07 | 83 | 1009.1 |
| 20260903160204 | 58 | 163 | 1.0 | 7.0 | 0.00 | 0.28 | 0.07 | 85 | 1009.2 |
| 20260903153703 | 56 | 123 | 2.0 | 3.0 | 0.00 | 0.28 | 0.07 | 88 | 1009.0 |
| 20260903153204 | 56 | 71 | 2.0 | 9.0 | 0.00 | 0.28 | 0.07 | 88 | 1008.9 |
| 20260903150704 | 55 | 104 | 3.0 | 7.0 | 0.00 | 0.28 | 0.07 | 89 | 1008.9 |
| 20260903143704 | 55 | 90 | 3.0 | 7.0 | 0.00 | 0.28 | 0.07 | 90 | 1008.7 |
| 20260903143204 | 55 | 96 | 3.0 | 8.0 | 0.01 | 0.28 | 0.07 | 90 | 1008.7 |
| 20260903140704 | 55 | 103 | 2.0 | 8.0 | 0.02 | 0.28 | 0.07 | 91 | 1008.7 |
| 20260903133703 | 54 | 96 | 2.0 | 3.0 | 0.05 | 0.28 | 0.07 | 91 | 1008.6 |
| 20260903133204 | 54 | 86 | 2.0 | 3.0 | 0.04 | 0.27 | 0.06 | 91 | 1008.6 |
| 20260903130704 | 55 | 129 | 2.0 | 3.0 | 0.05 | 0.26 | 0.05 | 90 | 1008.5 |
| 20260903123704 | 55 | 254 | 1.0 | 2.0 | 0.02 | 0.23 | 0.02 | 90 | 1008.5 |
| 20260903123204 | 55 | 134 | 0.0 | 5.0 | 0.02 | 0.23 | 0.02 | 89 | 1008.4 |
| 20260903120703 | 55 | 220 | 1.0 | 3.0 | 0.00 | 0.21 | 0.00 | 85 | 1008.2 |
| 20260903120204 | 56 | 100 | 0.0 | 8.0 | 0.00 | 0.21 | 0.00 | 85 | 1008.0 |
| 20260903113204 | 56 | 97 | 2.0 | 7.0 | 0.00 | 0.21 | 0.00 | 86 | 1007.8 |
| 20260903110704 | 55 | 77 | 3.0 | 7.0 | 0.00 | 0.21 | 0.00 | 86 | 1007.8 |
| 20260903110204 | 55 | 89 | 2.0 | 7.0 | 0.00 | 0.21 | 0.00 | 86 | 1007.7 |
| 20260903103203 | 55 | 86 | 3.0 | 6.0 | 0.00 | 0.21 | 0.00 | 87 | 1007.6 |
| 20260903100704 | 55 | 85 | 2.0 | 3.0 | 0.00 | 0.21 | 0.00 | 88 | 1007.7 |
| 20260903100204 | 55 | 62 | 2.0 | 3.0 | 0.00 | 0.21 | 0.00 | 88 | 1007.8 |
| 20260903093704 | 56 | 72 | 2.0 | 3.0 | 0.00 | 0.21 | 0.00 | 86 | 1007.7 |
| 20260903093204 | 56 | 108 | 0.0 | 1.0 | 0.00 | 0.21 | 0.00 | 85 | 1007.8 |